Weather History for Covington, KY

Change the Weather History Date:

Monday, February 3, 2014

  Actual Average Record
Temperature  
Mean Temperature 29 °F 32 °F  
Max Temperature 35 °F 40 °F 66 °F (1883)
Min Temperature 23 °F 24 °F -9 °F (1985)
Degree Days  
Heating Degree Days 36 33  
Month to date heating degree days 81 99  
Since 1 July heating degree days 3304 3071  
Cooling Degree Days 0 0  
Month to date cooling degree days 0 0  
Year to date cooling degree days 0 0  
Moisture  
Dew Point 20 °F    
Average Humidity 72    
Maximum Humidity 92    
Minimum Humidity 51    
Precipitation  
Precipitation 0.03 in 0.11 in 1.34 in (1887)
Month to date precipitation 0.24 0.32  
Year to date precipitation 3.04 3.32  
Snow  
Snow 0.40 in 0.30 in 5.70 in (1995)
Month to date snowfall 0.5 0.9  
Since 1 July snowfall 33.7 13.0  
Snow Depth T in    
Sea Level Pressure  
Sea Level Pressure 30.25 in    
Wind  
Wind Speed 9 mph (North)    
Max Wind Speed 16 mph    
Max Gust Speed 20 mph    
Visibility 7 miles    
Events Snow    
T = Trace of Precipitation, MM = Missing Value Source: NWS Daily Summary

Daily Weather History Graph

Daily Weather History Graph

Search for Another Location

Airport:

Trip Planner

Search our weather history database for the weather conditions in past years. The results will help you decide how hot, cold, wet, or windy it might be!

Date:

Astronomy

Feb. 03, 2014 Rise Set
Actual Time 7:43 AM EST 6:02 PM EST
Civil Twilight 7:15 AM EST 6:30 PM EST
Nautical Twilight 6:43 AM EST 7:02 PM EST
Astronomical Twilight 6:12 AM EST 7:33 PM EST
Moon 9:47 AM EST (2/3) 10:48 PM EST (2/3)
Length of Visible Light 11h 14m
Length of Day
10h 18m
Waxing Crescent, 19% of the Moon is Illuminated
Feb 3
Waxing Crescent
Feb 6
First Quarter
Feb 14
Full
Feb 22
Last Quarter
Mar 1
New

Hourly Weather History & Observations

Time (EST) Temp. Windchill Dew Point Humidity Pressure Visibility Wind Dir Wind Speed Gust Speed Precip Events Conditions
12:34 AM 26.6 °F 18.2 °F 24.8 °F 93% 30.15 in 1.5 mi NE 8.1 mph - 0.01 in Snow Light Snow
12:52 AM 27.0 °F 18.7 °F 24.1 °F 89% 30.17 in 1.2 mi NE 8.1 mph - 0.01 in Snow Light Snow
1:52 AM 27.0 °F 18.0 °F 23.0 °F 85% 30.17 in 1.5 mi North 9.2 mph - 0.01 in Snow Light Snow
2:52 AM 27.0 °F 18.7 °F 23.0 °F 85% 30.15 in 1.5 mi NNE 8.1 mph - 0.01 in Snow Light Snow
3:16 AM 26.6 °F 16.2 °F 21.2 °F 80% 30.12 in 5.0 mi NNE 11.5 mph - 0.00 in   Haze
3:52 AM 27.0 °F 18.0 °F 21.9 °F 81% 30.13 in 6.0 mi North 9.2 mph - 0.00 in   Haze
4:52 AM 26.1 °F 15.0 °F 21.9 °F 84% 30.17 in 4.0 mi North 12.7 mph - N/A   Overcast
5:52 AM 26.1 °F 15.0 °F 21.0 °F 81% 30.19 in 7.0 mi North 12.7 mph - N/A   Overcast
6:19 AM 26.6 °F 15.7 °F 21.2 °F 80% 30.17 in 7.0 mi North 12.7 mph - N/A   Overcast
6:37 AM 24.8 °F 13.4 °F 21.2 °F 86% 30.18 in 6.0 mi North 12.7 mph - N/A   Overcast
6:45 AM 24.8 °F 14.6 °F 21.2 °F 86% 30.18 in 6.0 mi North 10.4 mph - N/A   Overcast
6:52 AM 25.0 °F 14.2 °F 21.0 °F 85% 30.20 in 6.0 mi North 11.5 mph - 0.00 in Snow Light Snow
7:15 AM 24.8 °F 14.0 °F 19.4 °F 80% 30.19 in 7.0 mi North 11.5 mph - 0.00 in   Overcast
7:52 AM 25.0 °F 14.8 °F 19.0 °F 78% 30.25 in 6.0 mi North 10.4 mph - 0.00 in   Overcast
8:14 AM 24.8 °F 15.3 °F 19.4 °F 80% 30.23 in 5.0 mi North 9.2 mph - N/A   Mostly Cloudy
8:52 AM 25.0 °F 14.2 °F 19.0 °F 78% 30.27 in 7.0 mi North 11.5 mph - N/A   Mostly Cloudy
9:52 AM 25.0 °F 13.6 °F 18.0 °F 75% 30.29 in 7.0 mi North 12.7 mph - N/A   Scattered Clouds
10:52 AM 28.0 °F 18.6 °F 19.0 °F 69% 30.30 in 8.0 mi North 10.4 mph - N/A   Partly Cloudy
11:52 AM 30.0 °F 21.7 °F 19.9 °F 66% 30.30 in 8.0 mi North 9.2 mph - N/A   Partly Cloudy
12:52 PM 30.9 °F 23.5 °F 19.0 °F 61% 30.30 in 9.0 mi NNW 8.1 mph - N/A   Partly Cloudy
1:52 PM 33.1 °F 24.9 °F 19.0 °F 56% 30.28 in 10.0 mi NNE 10.4 mph - N/A   Clear
2:52 PM 34.0 °F 28.8 °F 18.0 °F 52% 30.29 in 10.0 mi North 5.8 mph - N/A   Partly Cloudy
3:52 PM 34.0 °F 27.2 °F 17.1 °F 50% 30.30 in 10.0 mi NNW 8.1 mph - N/A   Partly Cloudy
4:52 PM 33.1 °F 25.5 °F 18.0 °F 54% 30.29 in 10.0 mi North 9.2 mph - N/A   Scattered Clouds
5:52 PM 30.0 °F 23.2 °F 18.0 °F 61% 30.30 in 10.0 mi North 6.9 mph - N/A   Scattered Clouds
6:52 PM 28.0 °F 20.0 °F 18.0 °F 66% 30.33 in 10.0 mi North 8.1 mph - N/A   Mostly Cloudy
7:52 PM 26.1 °F 17.6 °F 17.1 °F 69% 30.33 in 10.0 mi North 8.1 mph - N/A   Scattered Clouds
8:52 PM 26.1 °F 19.4 °F 16.0 °F 66% 30.34 in 10.0 mi NE 5.8 mph - N/A   Scattered Clouds
9:52 PM 25.0 °F 18.1 °F 16.0 °F 69% 30.36 in 10.0 mi NNE 5.8 mph - N/A   Scattered Clouds
10:52 PM 24.1 °F 18.2 °F 16.0 °F 71% 30.37 in 9.0 mi NNE 4.6 mph - N/A   Partly Cloudy
11:52 PM 24.1 °F 18.2 °F 16.0 °F 71% 30.36 in 8.0 mi NE 4.6 mph - N/A   Mostly Cloudy